Temperature
25 24 22 22 21 21 20 20 20 19 19 19 19 19 19 19 18 18 18 18 18 18 18 18 18 18 18 18 18 18 18 18 18 18 18 18 18 18 18 18 18 18 18
25 24 23 22 21 21 21 20 20 20 20 19 19 19 19 19 19 19 18 18 18 18 18 18 18 18 18 18 18 18 18 18 18 18 18 19 19 18 19 18 18 18 18
26 24 23 23 22 21 21 21 21 20 20 20 19 19 19 19 19 19 19 18 18 18 18 18 18 18 18 18 18 18 18 18 18 18 18 19 19 19 19 18 18 18 18
26 25 24 23 23 22 22 21 21 21 20 20 20 19 19 19 19 19 19 18 18 18 18 18 18 18 18 18 18 18 18 18 18 18 18 18 18 19 19 18 18 18 17
27 26 25 24 23 23 22 21 21 21 21 20 20 20 19 19 19 19 19 19 18 18 18 18 18 18 18 18 18 18 18 18 18 18 18 17 18 18 18 19 18 18 18
27 26 25 24 23 23 22 21 21 21 21 21 20 20 20 19 19 19 19 19 19 19 18 18 18 18 18 18 18 18 18 18 18 18 18 18 18 18 18 18 18 18 18
27 26 25 24 23 22 22 22 22 22 21 21 20 20 20 20 19 19 19 19 19 19 19 19 18 18 18 18 18 18 18 18 18 18 18 18 18 18 18 18 18 18 18
27 26 25 24 23 23 22 22 22 22 21 21 21 20 20 20 19 19 19 19 19 19 19 19 19 18 18 18 18 18 18 18 18 18 17 17 17 17 17 17 18 18 18
27 26 25 24 23 23 22 22 22 22 22 21 21 21 20 20 20 19 19 19 19 19 19 19 19 18 18 18 18 18 18 17 17 17 17 17 17 17 17 17 17 17 18
26 26 25 24 24 23 22 22 22 22 21 21 21 20 20 20 20 20 19 19 19 19 19 19 19 18 18 18 18 18 17 17 17 17 17 17 17 17 17 17 17 17 17
26 26 25 24 24 23 22 21 21 21 21 21 21 20 20 20 20 20 20 19 19 19 19 19 19 18 18 18 18 18 18 17 17 17 17 17 17 17 17 17 17 16 16
25 25 24 24 23 23 22 21 21 20 20 20 20 20 20 20 20 20 20 19 19 19 19 19 18 18 18 18 18 18 17 17 17 17 17 17 17 17 17 16 16 16 16
23 23 23 23 22 22 22 21 21 20 20 20 20 20 20 20 20 20 19 19 19 19 19 18 18 18 18 18 18 18 17 17 17 17 17 17 17 17 17 16 16 16 16
22 22 22 21 21 21 21 21 20 20 20 20 19 19 20 20 20 20 19 19 19 19 18 18 18 18 18 18 18 17 17 17 17 17 17 17 17 17 16 16 16 16 16
22 21 21 21 20 20 20 20 19 19 19 19 19 19 20 20 19 19 19 19 19 18 18 18 18 18 18 18 18 17 17 17 17 17 17 17 17 17 16 16 16 16 16
21 21 20 20 20 20 19 19 19 19 19 19 19 19 19 19 19 19 19 19 18 18 18 18 17 17 17 17 17 17 17 17 17 17 16 16 16 17 17 16 16 16 16
21 20 20 20 19 19 19 19 19 19 19 19 19 19 19 18 18 18 18 18 18 18 17 17 17 17 17 17 17 17 17 16 16 16 16 16 16 16 16 16 16 16 16
20 19 19 19 19 19 18 18 18 18 18 18 18 18 18 18 18 18 17 17 17 17 17 17 17 17 17 17 17 17 16 16 16 16 16 16 16 16 16 15 15 15 15
18 18 18 18 18 18 18 18 18 18 18 18 18 17 17 17 17 17 17 17 17 17 17 16 16 16 16 16 17 16 16 16 15 15 15 15 15 16 15 15 15 15 15
18 17 17 17 17 17 17 17 17 17 17 17 17 16 16 16 17 17 16 16 16 16 16 16 16 16 16 16 16 16 15 15 15 15 15 15 15 15 15 15 14 14 14
17 17 17 17 16 16 16 16 16 16 16 16 16 16 16 16 16 16 16 15 15 15 15 15 15 15 15 15 16 15 15 15 15 14 14 14 15 15 15 14 14 14 14
16 16 16 16 16 16 16 16 16 16 16 16 15 15 15 15 15 15 15 15 15 15 15 14 15 15 15 15 15 15 15 14 14 14 14 14 14 14 14 14 14 14 14
15 15 15 15 15 15 15 15 15 15 15 15 15 15 15 15 14 14 14 14 14 14 14 14 14 14 14 14 14 14 14 14 14 14 13 13 14 13 13 13 13 13 13
15 15 15 15 14 14 14 15 15 15 15 14 14 14 14 14 14 14 14 14 14 14 14 14 14 14 14 14 14 14 13 13 13 13 13 13 13 13 13 13 13 13 13
14 14 14 14 14 14 14 14 14 14 14 14 14 14 14 13 13 13 13 13 13 13 13 13 13 13 13 13 13 13 13 13 12 12 12 12 12 12 12 12 12 12 12
14 14 13 13 13 13 13 13 13 13 13 13 13 13 13 13 13 13 13 13 13 13 13 13 12 12 12 13 13 13 12 12 12 12 12 12 12 12 12 12 12 12 12
Wind_Speed
13 12 12 11 11 11 11 10 10 9 8 7 6 6 6 5 5 5 6 6 6 7 6 4 4 4 4 4 4 4 4 4 3 3 3 4 5 5 4 4 4 5 6
14 14 13 13 13 13 12 12 12 11 10 8 6 5 4 4 5 4 5 7 7 7 7 5 5 5 4 4 4 4 3 3 3 3 3 3 4 4 4 4 4 4 4
15 15 15 15 14 14 14 12 12 12 11 9 7 6 5 5 5 6 5 6 7 7 6 6 5 4 5 4 5 5 5 4 4 4 3 3 2 1 3 3 4 4 3
16 15 16 16 16 15 14 13 13 12 12 11 9 9 7 6 6 5 5 6 7 7 7 7 6 5 5 4 6 6 4 5 4 4 4 4 3 3 2 3 3 3 4
16 16 17 16 15 15 14 13 13 12 12 12 11 10 9 7 5 5 5 6 6 7 7 7 6 6 5 5 5 4 5 5 5 4 4 4 4 5 4 3 2 3 3
13 14 15 14 14 14 14 13 13 13 13 13 12 12 10 8 6 6 6 6 6 6 7 7 6 6 5 5 6 6 6 5 5 5 5 5 4 4 4 4 4 3 2
11 13 15 15 15 15 15 14 14 13 13 13 13 12 11 9 8 7 7 6 5 5 6 6 6 6 6 6 6 6 6 6 6 6 5 5 5 4 4 4 4 4 3
10 12 14 14 14 15 15 14 15 14 13 13 12 11 11 9 8 8 6 6 5 5 5 6 6 6 6 6 6 6 6 6 6 7 6 5 4 4 4 4 4 4 4
6 9 12 13 14 15 15 15 14 14 14 13 12 11 11 9 8 7 8 7 6 5 6 6 7 7 6 6 6 5 5 5 6 6 6 5 4 5 4 5 5 5 5
4 7 10 12 13 14 14 14 14 13 13 13 11 10 10 10 9 8 8 7 7 6 6 6 6 6 6 6 6 6 5 6 6 5 5 5 5 4 4 4 5 5 5
2 5 7 10 11 12 13 13 13 13 12 11 11 10 9 9 9 8 8 8 8 8 8 7 7 7 7 6 7 7 6 7 7 6 7 7 6 5 5 5 5 5 5
1 3 5 8 9 11 12 12 11 11 11 10 10 10 9 9 9 9 9 8 8 8 8 8 8 8 7 7 7 8 7 7 7 7 7 7 6 6 6 5 6 5 5
2 3 4 5 7 8 9 10 10 10 9 9 9 9 9 9 9 9 8 8 8 8 8 8 8 8 8 8 8 8 8 8 8 7 7 7 7 7 6 6 6 6 6
3 3 4 4 4 6 6 7 8 8 8 9 9 9 8 8 9 8 8 8 8 8 8 8 8 8 8 8 8 8 8 8 8 7 8 8 8 8 7 7 7 6 6
3 3 4 4 4 4 4 5 5 6 7 8 8 8 7 7 6 6 7 7 7 8 8 8 8 8 7 8 8 8 8 8 8 7 8 8 7 6 6 6 6 6 6
2 3 3 4 4 4 4 4 4 5 6 6 7 6 6 5 5 5 5 6 7 7 8 8 8 8 7 5 5 7 7 7 8 8 8 8 8 8 8 7 6 6 7
2 2 2 2 3 3 4 4 4 5 6 6 6 5 5 4 4 5 6 6 7 7 7 8 8 8 7 6 6 7 7 7 7 7 7 7 6 8 8 8 10 8 7
1 1 1 1 2 2 3 3 3 4 4 4 4 4 3 4 4 5 6 6 6 6 6 6 7 7 6 7 7 7 8 7 7 7 7 7 6 6 7 7 8 8 8
1 1 1 1 2 2 2 2 2 3 3 3 3 3 3 3 4 5 5 5 5 5 5 6 6 6 5 6 8 8 7 6 7 7 7 7 7 5 6 8 8 8 7
1 1 1 2 2 2 2 1 1 2 1 1 1 1 2 3 3 4 4 4 4 5 5 4 5 5 5 6 8 8 6 6 6 6 6 5 6 5 6 8 8 8 7
2 1 2 2 2 2 1 1 1 1 1 0 1 1 2 2 2 2 3 4 4 4 4 4 4 5 5 5 7 7 6 6 6 6 6 5 5 6 7 8 7 6 6
1 1 1 2 2 1 1 1 1 1 1 1 0 1 2 2 1 2 3 3 3 3 3 3 4 4 4 4 5 7 7 6 6 6 5 3 5 5 6 5 4 5 6
1 1 1 1 1 1 0 0 1 1 1 0 1 1 2 2 2 3 3 3 3 3 3 3 4 4 3 3 6 8 8 7 6 4 2 3 6 7 6 6 6 6 5
0 0 1 1 2 2 2 1 1 1 1 1 1 1 2 2 2 2 2 2 2 2 3 3 3 3 3 3 3 3 4 6 5 4 4 6 6 6 4 5 5 4 4
1 1 0 1 1 2 2 2 1 1 1 1 1 2 2 2 1 1 2 3 2 2 3 3 3 4 4 2 1 2 3 4 3 3 3 4 4 4 4 4 4 4 4
1 1 1 0 1 1 1 1 1 1 1 1 2 2 2 2 2 1 1 3 1 2 2 3 4 3 2 1 2 2 1 2 3 4 4 4 5 5 4 4 4 4 4
Wind_Direction
196 192 195 195 192 191 191 191 192 183 184 184 189 189 191 192 189 192 183 190 197 194 206 208 191 212 207 215 214 216 214 222 220 236 235 227 221 218 217 227 233 223 224
197 194 197 198 198 195 195 193 194 190 191 187 192 196 195 200 195 198 186 198 198 202 197 203 212 209 205 209 216 214 228 227 211 233 244 234 207 211 213 214 221 234 226
201 196 199 201 200 199 197 197 195 191 195 189 189 187 191 208 202 198 195 200 202 205 214 201 216 213 222 205 213 215 221 235 229 232 250 265 258 215 192 215 220 223 232
205 201 200 202 203 201 197 196 194 193 191 192 197 198 202 207 205 202 196 195 201 206 207 208 211 218 222 212 220 214 224 234 239 226 235 261 294 278 248 218 211 219 229
206 204 202 201 201 199 195 192 191 192 191 195 198 205 212 212 204 200 191 203 200 207 210 210 210 214 223 221 232 228 230 232 241 239 232 232 234 245 261 264 257 230 226
206 204 201 196 196 194 193 190 187 190 192 196 202 208 210 209 202 200 198 202 199 199 204 209 210 213 216 215 221 223 222 234 243 247 238 234 236 238 244 257 259 257 238
203 199 197 194 193 192 191 189 186 190 194 197 201 204 207 205 206 207 205 212 206 199 199 209 211 214 214 214 214 213 227 227 231 237 238 238 242 255 254 260 267 270 255
201 199 196 196 193 191 190 189 189 190 192 197 200 203 205 208 209 209 214 210 218 213 196 203 209 212 215 217 212 219 218 223 228 236 237 240 245 248 252 257 267 272 263
201 199 196 195 194 192 190 191 190 191 193 197 197 201 204 210 211 206 213 217 215 213 205 206 208 210 210 216 217 223 224 221 227 229 226 238 241 243 250 252 256 264 272
202 193 192 193 193 193 191 191 190 194 195 195 196 197 200 205 212 214 213 218 216 213 211 214 213 210 206 209 217 219 215 215 222 230 238 243 247 246 246 247 250 253 263
184 180 184 184 185 186 189 190 189 190 195 197 196 200 200 204 210 213 219 217 218 212 211 213 214 212 208 208 212 220 216 222 225 229 228 232 244 247 243 238 242 245 250
144 163 168 170 175 178 181 183 186 188 192 194 195 200 200 202 209 215 219 219 218 215 213 213 214 217 214 210 214 220 221 226 230 232 233 235 230 232 242 241 241 239 238
101 120 139 154 165 170 173 177 182 186 186 189 196 199 201 201 207 217 218 217 218 216 215 212 215 219 218 216 218 222 226 229 233 234 234 235 233 235 233 236 240 238 234
109 119 124 135 148 159 166 174 182 182 183 187 195 199 201 205 209 212 214 214 214 215 215 216 219 219 218 218 218 219 225 230 234 235 236 236 235 237 236 235 237 240 241
115 125 130 135 143 143 155 173 182 181 182 184 188 193 196 202 205 208 211 212 213 216 216 218 220 220 218 218 215 217 221 228 235 237 239 238 235 241 244 247 237 232 237
113 121 131 136 142 146 155 163 172 181 184 187 189 190 190 192 200 210 214 214 216 219 216 217 218 218 221 195 213 232 227 229 234 238 243 239 227 226 224 242 250 248 239
112 116 125 139 153 157 162 169 171 173 176 179 184 182 183 190 205 217 219 218 216 217 219 220 219 221 216 187 201 228 236 235 238 239 242 246 234 226 228 217 219 230 238
56 87 100 108 126 132 137 154 154 160 168 168 169 169 180 181 192 209 216 219 221 219 222 228 226 225 218 191 199 217 227 235 237 239 241 243 242 238 237 232 226 227 227
46 81 84 97 102 116 121 135 137 143 159 162 160 171 190 188 199 213 221 225 229 231 231 232 234 231 219 196 200 216 225 229 236 240 242 244 240 231 236 236 233 230 227
58 88 102 102 106 101 113 133 125 125 151 161 168 193 213 218 218 227 234 235 234 235 239 237 239 236 229 198 198 213 228 231 236 237 234 235 242 226 223 230 233 234 232
60 89 109 108 109 106 103 114 109 90 56 71 162 208 233 239 237 245 245 243 236 235 244 247 234 229 229 198 194 207 227 233 238 240 235 228 198 205 216 234 236 236 242
55 62 80 80 86 99 125 138 102 54 56 55 260 252 255 267 261 241 244 243 234 225 236 240 231 224 223 213 196 197 221 253 239 242 241 215 157 186 204 216 229 236 241
44 62 72 58 42 38 101 115 46 37 45 303 277 263 251 251 245 239 234 230 229 229 232 242 243 242 234 205 188 193 207 230 236 241 223 172 180 192 196 202 219 225 229
347 52 67 34 11 7 1 25 0 314 276 264 262 244 239 243 240 255 255 247 240 241 242 256 266 261 247 246 228 211 207 208 221 224 177 175 197 210 203 198 204 218 229
328 326 317 27 21 19 9 9 1 322 292 287 273 261 252 248 243 270 318 285 290 277 261 267 273 275 267 266 311 256 232 232 228 220 208 214 209 212 210 210 211 216 215
278 280 279 348 10 20 1 349 335 297 256 257 267 272 259 243 238 231 317 37 353 8 336 295 279 294 305 214 168 172 186 195 198 212 217 219 221 224 223 221 217 214 218
Height
1508 1511 1513 1515 1517 1518 1520 1522 1524 1525 1527 1528 1530 1531 1532 1533 1535 1536 1537 1538 1540 1541 1542 1544 1544 1545 1546 1547 1548 1549 1549 1550 1551 1552 1552 1552 1552 1552 1552 1553 1553 1554 1554
1504 1507 1510 1512 1514 1516 1517 1519 1521 1523 1525 1527 1528 1530 1531 1533 1534 1535 1535 1537 1539 1540 1541 1541 1543 1544 1544 1545 1546 1547 1548 1549 1549 1550 1551 1551 1551 1550 1551 1551 1551 1551 1552
1499 1503 1506 1508 1511 1513 1514 1517 1519 1521 1523 1525 1527 1529 1529 1531 1533 1533 1534 1536 1537 1538 1539 1540 1542 1542 1543 1544 1544 1545 1546 1547 1548 1548 1549 1549 1548 1548 1549 1548 1548 1548 1549
1494 1498 1501 1504 1506 1509 1512 1514 1516 1518 1520 1522 1525 1527 1528 1529 1530 1532 1533 1534 1535 1537 1538 1539 1540 1540 1541 1542 1543 1544 1544 1545 1546 1546 1546 1547 1547 1547 1547 1547 1546 1546 1546
1489 1492 1496 1499 1503 1506 1509 1511 1513 1515 1517 1519 1522 1524 1526 1527 1529 1530 1531 1532 1534 1535 1536 1537 1538 1538 1539 1540 1541 1541 1542 1542 1543 1544 1544 1544 1544 1545 1545 1544 1544 1544 1544
1484 1488 1492 1495 1499 1502 1505 1508 1509 1512 1514 1516 1519 1521 1523 1525 1527 1528 1529 1531 1532 1533 1534 1535 1535 1536 1537 1537 1538 1539 1539 1539 1540 1541 1542 1542 1542 1542 1542 1542 1541 1541 1541
1480 1483 1487 1491 1494 1497 1501 1504 1506 1508 1511 1513 1515 1518 1520 1522 1523 1525 1527 1529 1531 1531 1531 1533 1533 1534 1535 1535 1536 1536 1537 1537 1537 1538 1539 1539 1539 1539 1539 1539 1539 1539 1539
1476 1479 1482 1486 1489 1493 1496 1500 1502 1505 1507 1510 1513 1515 1517 1519 1521 1522 1525 1526 1528 1529 1529 1530 1530 1531 1532 1533 1533 1534 1534 1534 1534 1535 1536 1536 1536 1536 1537 1537 1537 1536 1537
1473 1476 1479 1482 1486 1489 1492 1495 1498 1501 1504 1507 1509 1511 1514 1516 1519 1520 1521 1523 1524 1526 1526 1527 1528 1528 1529 1530 1530 1531 1531 1532 1532 1533 1533 1534 1534 1534 1534 1534 1534 1535 1534
1471 1472 1475 1479 1482 1485 1489 1492 1494 1497 1501 1504 1506 1509 1511 1513 1515 1517 1518 1519 1521 1522 1523 1524 1525 1525 1526 1526 1527 1528 1529 1529 1529 1530 1530 1530 1531 1531 1531 1531 1531 1531 1532
1469 1471 1473 1475 1479 1482 1485 1488 1491 1494 1497 1500 1503 1506 1508 1510 1512 1513 1514 1515 1517 1518 1519 1520 1521 1522 1522 1523 1524 1525 1526 1526 1526 1526 1526 1526 1526 1527 1527 1527 1527 1528 1528
1469 1470 1472 1474 1476 1479 1482 1485 1488 1491 1494 1497 1499 1502 1504 1506 1508 1510 1511 1512 1513 1514 1516 1516 1517 1518 1519 1519 1520 1521 1522 1523 1523 1523 1523 1523 1523 1523 1523 1524 1524 1524 1524
1470 1470 1471 1473 1475 1477 1480 1483 1485 1488 1491 1494 1496 1498 1500 1502 1504 1505 1506 1508 1509 1510 1512 1512 1513 1514 1515 1515 1516 1517 1518 1519 1519 1519 1519 1519 1519 1519 1520 1520 1520 1521 1521
1469 1470 1471 1472 1474 1476 1478 1480 1483 1485 1488 1490 1492 1494 1496 1498 1499 1500 1502 1503 1504 1506 1507 1508 1509 1510 1511 1511 1512 1513 1514 1514 1515 1515 1515 1516 1516 1516 1516 1516 1516 1517 1517
1469 1470 1470 1471 1473 1474 1476 1478 1481 1483 1485 1487 1489 1490 1492 1494 1495 1497 1498 1499 1500 1502 1503 1504 1505 1506 1506 1507 1508 1509 1509 1510 1510 1511 1511 1511 1511 1512 1512 1513 1513 1513 1513
1469 1470 1470 1471 1472 1473 1475 1476 1478 1481 1483 1484 1486 1487 1489 1490 1491 1493 1494 1495 1496 1497 1498 1499 1500 1501 1502 1503 1504 1504 1505 1505 1506 1506 1507 1507 1506 1507 1507 1508 1509 1509 1509
1468 1469 1470 1471 1472 1472 1473 1474 1476 1478 1480 1481 1482 1484 1485 1486 1487 1489 1491 1492 1492 1493 1493 1494 1495 1496 1496 1497 1499 1500 1500 1501 1501 1501 1502 1503 1503 1503 1503 1503 1504 1504 1504
1468 1469 1470 1470 1471 1472 1472 1473 1474 1475 1477 1478 1479 1481 1482 1482 1483 1485 1487 1487 1488 1488 1489 1490 1490 1491 1491 1492 1493 1495 1495 1496 1496 1496 1497 1497 1498 1498 1499 1500 1500 1500 1500
1468 1468 1469 1469 1469 1470 1471 1472 1472 1473 1474 1475 1476 1477 1479 1479 1480 1482 1483 1483 1484 1484 1484 1485 1485 1485 1486 1488 1488 1489 1490 1490 1491 1491 1492 1492 1493 1493 1494 1495 1495 1495 1495
1467 1467 1468 1468 1468 1468 1469 1470 1471 1471 1472 1473 1473 1474 1476 1476 1477 1477 1479 1480 1479 1479 1480 1480 1480 1480 1481 1482 1483 1484 1485 1485 1486 1487 1487 1487 1488 1489 1489 1490 1490 1491 1491
1466 1466 1466 1467 1467 1467 1468 1469 1469 1470 1470 1471 1471 1472 1473 1473 1473 1474 1475 1475 1475 1475 1475 1474 1474 1475 1477 1477 1478 1479 1480 1481 1482 1482 1483 1483 1483 1484 1484 1485 1486 1486 1487
1465 1465 1465 1466 1466 1466 1467 1468 1468 1469 1469 1469 1469 1470 1470 1470 1471 1471 1471 1471 1471 1471 1470 1470 1470 1471 1472 1473 1473 1474 1475 1476 1478 1478 1479 1479 1479 1479 1479 1480 1481 1482 1482
1464 1464 1464 1464 1465 1465 1466 1466 1466 1467 1467 1467 1467 1468 1468 1467 1468 1468 1468 1468 1468 1468 1467 1468 1468 1469 1469 1469 1469 1470 1471 1472 1473 1473 1474 1474 1474 1475 1475 1476 1476 1478 1479
1463 1463 1463 1463 1464 1464 1464 1464 1464 1465 1465 1465 1465 1466 1466 1466 1466 1465 1466 1465 1465 1465 1465 1464 1465 1465 1465 1465 1466 1467 1467 1468 1469 1469 1470 1470 1470 1471 1471 1472 1472 1473 1474
1461 1461 1461 1461 1461 1462 1462 1462 1462 1462 1463 1463 1463 1463 1463 1463 1463 1462 1462 1462 1461 1462 1461 1461 1460 1460 1461 1462 1462 1462 1463 1464 1464 1465 1466 1466 1467 1467 1467 1468 1468 1469 1469
1459 1460 1460 1460 1460 1460 1460 1460 1461 1460 1461 1461 1461 1461 1461 1460 1460 1460 1459 1458 1458 1458 1458 1457 1458 1458 1458 1458 1458 1458 1459 1459 1460 1461 1462 1462 1463 1463 1464 1464 1464 1465 1465